Preview of NWS' New Version of Forecast
This preview is not operational and should not be used for support decisions.
Latest weather observations around

Merkel Field Sylacauga Municipal Airport (KSCD)

Using International System of Units (Switch to English Units)
Date/ Time (CST) Wind (kph) Vis. (km) Weather Sky Cond. Temp (°C) Rel. Humidity Wind Chill (°C) Heat Index (°C) Pressure Precip. (cm)
Air Dwpt 6 hour Altimeter (hPa) Sea level (hPa) 1 hr 3 hr 6 hr
Max Min
Feb 22 08:35 S 8 16.09 Cloudy OVC009 21 21     99%   22 1029.8        
Feb 22 08:15 S 5 16.09 Cloudy OVC007 21 21     100%     1029.8        
Feb 22 07:55 S 9 11.27 Cloudy OVC007 20 20     100%     1029.5        
Feb 22 07:35 Calm 11.27 Cloudy OVC007 20 20     100%     1029.5        
Feb 22 07:15 Calm 8.05 Fog/Mist OVC007 20 20     100%     1029.1        
Feb 22 06:55 Calm 11.27 Cloudy OVC007 19 19     100%     1029.1        
Feb 22 06:35 Calm 11.27 Cloudy OVC007 19 19     100%     1028.8        
Feb 22 06:15 Calm 16.09 Cloudy OVC007 19 19     100%     1028.8        
Feb 22 05:55 Calm 16.09 Cloudy OVC007 20 20     100%     1028.5        
Feb 22 05:35 Calm 11.27 Cloudy OVC007 20 20     100%     1028.5        
Feb 22 05:15 SSW 5 11.27 Cloudy OVC007 19 19     100%     1028.1        
Feb 22 04:55 SSW 5 16.09 Mostly Cloudy BKN007 19 19     100%     1028.1        
Feb 22 04:35 Calm 16.09 Clear CLR 19 19     100%     1027.8        
Feb 22 04:15 Calm 16.09 Clear CLR 19 19     100%     1027.8        
Feb 22 03:55 S 5 11.27 Partly Cloudy SCT010 19 19     100%     1027.8        
Feb 22 03:35 Calm 11.27 Partly Cloudy SCT010 20 20     100%     1027.4        
Feb 22 03:15 SSW 9 16.09 Partly Cloudy SCT010 20 20     100%     1027.4        
Feb 22 02:55 SSW 11 11.27 Partly Cloudy SCT010 20 20     100%     1027.4        
Feb 22 02:35 SSW 11 11.27 Partly Cloudy SCT010 20 20     100%     1027.4        
Feb 22 02:15 S 8 11.27 Clear CLR 20 20     100%     1027.1        
Feb 22 01:55 SSW 8 16.09 Clear CLR 20 20     97%     1027.4        
Feb 22 01:35 SSW 13 16.09 Clear CLR 21 19     92%     1027.4        
Feb 22 01:15 S 11 16.09 Clear CLR 21 19     91%     1027.8        
Feb 22 00:55 S 11 16.09 Clear CLR 21 19     89%     1027.8        
Feb 22 00:35 S 13 16.09 Clear CLR 21 19     87%     1027.8        
Feb 22 00:15 S 9 16.09 Clear CLR 21 19     85%   22 1027.8        
Feb 21 23:55 S 13 16.09 Clear CLR 21 19     84%   22 1027.8        
Feb 21 23:35 S 9 16.09 Clear CLR 21 18     83%   22 1027.4        
Feb 21 23:15 S 8 16.09 Clear CLR 21 18     83%     1027.4        
Feb 21 22:55 Calm 16.09 Clear CLR 21 18     81%     1027.4        
Feb 21 22:35 Calm 16.09 Clear CLR 21 18     80%     1027.4        
Feb 21 22:15 Calm 16.09 Clear CLR 21 17     80%     1027.1        
Feb 21 21:55 Calm 16.09 Clear CLR 22 18     77%   22 1027.1        
Feb 21 21:35 Calm 16.09 Clear CLR 22 18     76%   22 1026.8        
Feb 21 21:15 SSE 8 16.09 Clear CLR 22 18     76%   22 1026.8        
Feb 21 20:55 SSE 8 16.09 Clear CLR 23 18     74%   23 1026.4        
Feb 21 20:35 SSE 11 16.09 Clear CLR 23 18     73%   23 1026.4        
Feb 21 20:15 SSE 11 16.09 Clear CLR 23 18     71%   24 1026.1        
Feb 21 19:55 S 9 16.09 Clear CLR 23 18     71%   24 1026.1        
Feb 21 19:35 SSE 8 16.09 Clear CLR 24 18     71%   24 1025.7        
Feb 21 19:15 SSE 9 16.09 Clear CLR 24 18     71%   24 1025.7        
Feb 21 18:55 SE 9 16.09 Clear CLR 24 18     73%   24 1025.7        
Feb 21 18:35 SE 8 16.09 Partly Cloudy SCT060 24 18     73%   24 1025.7        
Feb 21 18:15 SE 5 16.09 Partly Cloudy SCT050 24 19     71%   25 1025.7        
Feb 21 17:55 SE 5 16.09 Partly Cloudy SCT050 24 19     71%   25 1025.4        
Feb 21 17:35 SSE 5 16.09 Clear CLR 25 19     69%   25 1025.4        
Feb 21 17:15 SE 8 16.09 Partly Cloudy SCT085 26 19     67%   26 1025.1        
Feb 21 16:55 SE 11 16.09 Partly Cloudy SCT075 SCT090 26 19     66%   26 1025.4        
Feb 21 16:35 SSE 9 16.09 Partly Cloudy SCT045 SCT060 SCT070 26 19     64%   28 1025.1        
Feb 21 16:15 SSE 11 16.09 Clear CLR 27 18     60%   28 1025.1        
Feb 21 15:55 S 11 16.09 Partly Cloudy SCT047 SCT060 SCT090 27 19     59%   29 1024.7        
Feb 21 15:35 SSE 22 16.09 Cloudy SCT047 BKN080 OVC090 28 18     57%   29 1024.7        
Feb 21 15:15 SSW 13 16.09 Cloudy SCT048 OVC090 28 19     57%   29 1025.1        
Feb 21 14:55 S 13 16.09 Mostly Cloudy BKN080 28 19     59%   29 1025.1        
Feb 21 14:35 SSE 21 16.09 Mostly Cloudy SCT041 SCT080 BKN085 28 19     57%   30 1025.4        
Feb 21 14:15 S 15 16.09 Mostly Cloudy SCT040 SCT047 BKN080 28 19     58%   29 1025.7        
Feb 21 13:55 S 15 16.09 Cloudy BKN040 BKN048 OVC080 28 19     60%   29 1026.1        
Feb 21 13:35 SW 18 16.09 Cloudy BKN038 BKN046 OVC080 26 20     66%   28 1026.1        
Feb 21 13:15 SW 13 16.09 Cloudy BKN034 BKN045 OVC070 26 20     69%   27 1026.4        
Feb 21 12:35 SSW 18 16.09 Mostly Cloudy BKN036 BKN043 BKN050 27 20     66%   28 1026.8        
Feb 21 12:15 SSW 17 16.09 Mostly Cloudy BKN032 BKN038 BKN043 28 20     63%   29 1026.8        
Feb 21 11:55 SSW 15 16.09 Cloudy BKN030 BKN036 OVC044 27 20     65%   29 1027.1        
Feb 21 11:35 SSW 15 16.09 Cloudy BKN026 OVC034 26 20     70%   28 1027.8        
Feb 21 11:15 S 18 16.09 Cloudy BKN026 OVC033 25 20     73%   26 1028.1        
Feb 21 10:55 S 13 16.09 Cloudy BKN024 BKN030 OVC038 25 20     75%   26 1028.5        
Feb 21 10:35 SSW 15 16.09 Cloudy BKN022 BKN029 OVC036 25 20     77%   25 1028.8        
Feb 21 10:15 SSW 15 16.09 Cloudy SCT018 BKN029 OVC047 25 20     77%   25 1028.8        
Feb 21 09:55 SSE 13 16.09 Cloudy BKN016 BKN023 OVC043 24 20     81%   25 1028.8        
Feb 21 09:35 SSE 9 16.09 Cloudy BKN016 BKN021 OVC075 23 21     84%   24 1028.8        
Feb 21 09:15 S 11 16.09 Cloudy OVC014 23 20     87%   23 1028.8        
Feb 21 08:55 S 11 16.09 Cloudy OVC012 22 21     91%   23 1028.8        
Feb 21 08:35 SE 9 16.09 Cloudy OVC010 22 22     98%   23 1028.8        
Feb 21 08:15 SSE 13 16.09 Cloudy OVC010 22 21     99%   22 1028.5        
Feb 21 07:55 SE 8 16.09 Mostly Cloudy BKN012 BKN032 21 21     100%     1028.1        
Feb 21 07:35 SSE 9 16.09 Cloudy BKN032 OVC039 21 21     100%     1027.8        
Feb 21 07:15 SSE 8 16.09 Cloudy SCT030 OVC039 21 21     100%     1027.8        
Feb 21 06:55 SSE 5 16.09 Mostly Cloudy BKN030 BKN050 20 20     100%     1027.4        
Feb 21 06:35 S 5 11.27 Partly Cloudy SCT032 SCT050 20 20     100%     1027.4        
Feb 21 06:15 SSE 5 16.09 Partly Cloudy SCT034 SCT041 20 20     100%     1027.1        
Feb 21 05:55 Calm 16.09 Mostly Cloudy SCT011 BKN034 BKN039 20 20     100%     1027.1        
Feb 21 05:35 SSE 9 16.09 Mostly Cloudy SCT034 BKN041 BKN050 20 20     100%     1027.1        
Feb 21 05:15 Calm 16.09 Cloudy BKN038 BKN044 OVC050 20 20     100%     1027.1        
Feb 21 04:55 SSE 5 16.09 Mostly Cloudy SCT037 BKN043 BKN065 20 20     100%     1027.1        
Feb 21 04:35 S 5 16.09 Partly Cloudy SCT070 20 20     100%     1026.8        
Feb 21 04:15 SSW 5 16.09 Mostly Cloudy BKN012 BKN075 21 21     100%     1026.8        
Feb 21 03:55 SSW 8 11.27 Mostly Cloudy SCT012 BKN075 21 21     100%     1026.8        
Feb 21 03:35 S 9 16.09 Partly Cloudy SCT075 21 21     99%     1026.8        
Feb 21 03:15 S 11 16.09 Partly Cloudy SCT013 SCT085 21 21     100%     1026.8        
Feb 21 02:55 S 11 16.09 Cloudy BKN013 OVC080 21 21     96%   22 1026.8        
Feb 21 02:35 S 9 16.09 Cloudy OVC015 21 20     94%   22 1026.8        
Feb 21 02:15 SSW 11 16.09 Cloudy OVC015 22 20     93%   22 1026.8        
Feb 21 01:55 S 11 16.09 Cloudy OVC015 22 20     93%   22 1026.8        
Feb 21 01:35 S 11 16.09 Mostly Cloudy BKN015 BKN041 21 20     92%   22 1026.8        
Feb 21 01:15 S 11 16.09 Mostly Cloudy SCT015 SCT020 BKN039 22 20     92%   22 1026.8        
Feb 21 00:55 S 15 16.09 Partly Cloudy SCT015 SCT020 SCT028 22 20     90%   22 1026.8        
Feb 21 00:35 S 15 16.09 Mostly Cloudy SCT017 BKN026 22 20     90%   23 1026.8        
Feb 21 00:15 S 18 16.09 Cloudy SCT017 OVC023 22 20     89%   23 1026.4        
Feb 20 23:55 S 9 16.09 Cloudy OVC021 22 20     90%   22 1026.4        
Feb 20 23:35 SSE 9 16.09 Cloudy OVC020 21 20     91%   22 1026.4        
Feb 20 23:15 SSE 11 16.09 Cloudy OVC020 21 20     91%   22 1026.4        
Feb 20 22:55 SSE 8 16.09 Mostly Cloudy SCT020 BKN040 21 20     91%   22 1026.1        
Feb 20 22:35 SSE 11 16.09 Partly Cloudy SCT027 SCT038 22 20     89%   22 1026.1        
Feb 20 22:15 SSE 9 16.09 Mostly Cloudy SCT027 SCT032 BKN039 22 20     88%   22 1026.1        
Feb 20 21:55 SSE 9 16.09 Mostly Cloudy SCT027 BKN033 BKN040 22 20     88%   22 1026.1        
Feb 20 21:35 SSE 9 16.09 Mostly Cloudy BKN030 BKN035 BKN046 22 20     88%   22 1025.7        
Feb 20 21:15 SSE 11 16.09 Partly Cloudy SCT032 22 20     88%   22 1025.7        
Feb 20 20:55 SE 9 16.09 Clear CLR 22 20     89%   22 1025.4        
Feb 20 20:35 SE 8 16.09 Partly Cloudy SCT035 22 20     87%   22 1025.4        
Feb 20 20:15 SE 8 16.09 Partly Cloudy SCT035 22 20     86%   23 1025.1        
Feb 20 19:55 SE 13 16.09 Clear CLR 22 20     86%   23 1025.1        
Feb 20 19:35 SE 11 16.09 Clear CLR 22 19     84%   23 1025.1        
Feb 20 19:15 SE 13 16.09 Clear CLR 22 19     83%   23 1024.7        
Feb 20 18:55 SE 11 16.09 Clear CLR 23 19     83%   23 1024.7        
Feb 20 18:35 SE 11 16.09 Partly Cloudy SCT100 23 19     81%   23 1024.7        
Feb 20 18:15 SE 11 16.09 Mostly Cloudy SCT046 SCT060 BKN100 23 19     80%   24 1024.7        
Feb 20 17:55 SE 11 16.09 Cloudy SCT038 SCT047 OVC100 23 20     80%   24 1024.7        
Feb 20 17:35 SSE 15 16.09 Drizzle SCT041 BKN060 OVC090 24 20     79%   24 1024.4        
Feb 20 17:15 SE 13 16.09 Cloudy SCT049 SCT065 OVC090 24 19     75%   25 1024.4        
Feb 20 16:55 SE 13 16.09 Cloudy SCT036 SCT049 OVC080 25 19     72%   25 1024.4        
Feb 20 16:35 SE 8 16.09 Cloudy SCT040 BKN065 OVC080 25 19     69%   26 1024.1        
Feb 20 16:15 SSE 13 16.09 Mostly Cloudy BKN080 26 19     67%   26 1023.7        
Feb 20 15:55 SSE 13 16.09 Cloudy OVC080 26 19     63%   26 1023.7        
Feb 20 15:35 S 15 16.09 Mostly Cloudy SCT041 BKN080 26 19     65%   26 1023.7        
Feb 20 15:15 SE 18 16.09 Mostly Cloudy SCT037 SCT047 BKN070 27 19     62%   28 1023.7        
Feb 20 14:55 SSE 15 16.09 Mostly Cloudy SCT047 SCT055 BKN070 26 19     65%   26 1024.1        
Feb 20 14:35 SE 21 16.09 Mostly Cloudy SCT043 SCT049 BKN070 26 19     66%   26 1024.1        
Feb 20 14:15 SSE 15 16.09 Mostly Cloudy SCT036 SCT044 BKN070 26 19     63%   28 1024.1        
Feb 20 14:00 SE 13 16.09 Mostly Cloudy SCT036 SCT046 BKN070 26 19     64%   26 1024.4        
Feb 20 13:35 SE 15 16.09 Mostly Cloudy SCT036 SCT042 BKN050 25 19     67%   26 1024.4        
Feb 20 13:15 SSE 22 16.09 Mostly Cloudy SCT036 BKN044 BKN055 26 19     64%   27 1024.7        
Feb 20 12:55 SSE 22 16.09 Mostly Cloudy SCT036 SCT042 BKN050 26 18     60%   27 1025.1        
Feb 20 12:35 S 21 16.09 Mostly Cloudy SCT036 BKN045 BKN070 27 19     62%   28 1025.4        
Feb 20 12:15 SSE 18 16.09 Mostly Cloudy SCT032 SCT038 BKN070 26 19     63%   27 1025.7        
Feb 20 11:55 SSE 18 16.09 Cloudy SCT029 SCT034 OVC070 26 19     65%   26 1026.1        
Feb 20 11:35 S 13 16.09 Cloudy SCT027 BKN034 OVC070 26 19     67%   26 1026.1        
Feb 20 11:15 S 15 16.09 Mostly Cloudy SCT027 BKN065 26 19     67%   26 1026.4        
Feb 20 10:55 SSE 13 16.09 Partly Cloudy SCT025 SCT055 SCT065 25 19     70%   25 1026.8        
Feb 20 10:35 SSE 13 16.09 Partly Cloudy SCT022 SCT065 24 19     73%   25 1026.8        
Feb 20 10:15 SSE 17 16.09 Partly Cloudy SCT018 SCT065 24 19     75%   24 1026.8        
Feb 20 09:55 SSE 18 16.09 Partly Cloudy SCT015 SCT065 23 19     79%   23 1027.1        
Feb 20 09:35 SSE 22 16.09 Partly Cloudy SCT014 SCT050 22 19     80%   23 1027.1        
Feb 20 09:15 SSE 17 16.09 Mostly Cloudy SCT014 BKN050 22 19     81%   23 1027.1        
Feb 20 08:55 SSE 17 16.09 Mostly Cloudy BKN050 22 19     84%   22 1026.8        
Feb 20 08:35 SSE 18 16.09 Mostly Cloudy BKN050 21 20     92%     1026.8        
Feb 20 08:15 SSE 13 16.09 Partly Cloudy SCT050 20 19     95%     1026.4        
Feb 20 07:55 SSE 13 16.09 Clear CLR 20 19     94%     1026.1        
Feb 20 07:35 SSE 11 16.09 Clear CLR 19 18     96%     1026.1        
Feb 20 07:15 SE 9 16.09 Clear CLR 18 18     98%     1026.1        
Feb 20 06:55 ESE 9 16.09 Clear CLR 17 17     100%     1026.1        
Feb 20 06:35 ESE 8 16.09 Partly Cloudy SCT055 17 17     100%     1025.7        
Feb 20 06:15 SE 5 16.09 Mostly Cloudy SCT039 BKN055 17 17     99%     1026.1        
Feb 20 05:55 ESE 8 16.09 Mostly Cloudy SCT039 BKN055 17 17     99%     1026.1        
Feb 20 05:35 Calm 16.09 Partly Cloudy SCT055 17 17     100%     1025.7        
Feb 20 05:15 E 8 16.09 Partly Cloudy SCT055 16 16     100%     1026.1        
Feb 20 04:55 Calm 16.09 Partly Cloudy SCT055 14 14     100%     1025.7        
Feb 20 04:35 Calm 16.09 Partly Cloudy SCT055 13 13     100%     1025.4        
Feb 20 04:15 Calm 16.09 Partly Cloudy SCT050 13 13     100%     1025.4        
Feb 20 03:55 Calm 6.44 Fog/Mist SCT050 14 14     100%     1025.1        
Feb 20 03:35 Calm 11.27 Partly Cloudy SCT050 14 14     100%     1025.4        
Feb 20 03:15 Calm 6.44 Fog/Mist CLR 14 14     100%     1025.1        
Feb 20 02:55 Calm 4.83 Fog/Mist CLR 13 13     100%     1025.1        
Feb 20 02:35 Calm 16.09 Clear CLR 14 14     100%     1025.1        
Feb 20 02:15 Calm 16.09 Clear CLR 15 15     100%     1025.1        
Feb 20 01:55 Calm 16.09 Clear CLR 15 15     100%     1024.7        
Feb 20 01:35 E 5 16.09 Clear CLR 16 16     100%     1024.7        
Feb 20 01:15 Calm 16.09 Clear CLR 17 17     97%     1025.1        
Feb 20 00:55 Calm 16.09 Clear CLR 18 16     89%     1025.1        
Feb 20 00:35 ESE 5 16.09 Partly Cloudy SCT060 19 16     84%     1024.7        
Feb 20 00:15 Calm 16.09 Mostly Cloudy BKN060 20 17     81%     1024.7        
Feb 19 23:55 Calm 16.09 Cloudy OVC060 21 17     78%     1024.7        
Feb 19 23:35 SSE 8 16.09 Cloudy SCT044 OVC070 21 17     77%     1024.7        
Feb 19 23:15 S 8 16.09 Cloudy OVC070 21 17     77%     1024.7        
Feb 19 22:55 SSE 11 16.09 Cloudy SCT047 SCT060 OVC065 21 17     76%     1024.7        
Feb 19 22:35 SSE 13 16.09 Cloudy BKN045 OVC060 21 17     75%   22 1024.4        
Feb 19 22:15 SSE 9 16.09 Mostly Cloudy BKN045 BKN070 21 17     76%   21 1024.4        
Feb 19 21:55 SSE 8 16.09 Mostly Cloudy SCT043 SCT049 BKN070 21 17     76%     1024.4        
Feb 19 21:35 SSE 5 16.09 Cloudy SCT045 OVC070 21 16     76%     1024.4        
Feb 19 21:15 SSE 9 16.09 Cloudy OVC070 21 16     74%   22 1024.1        
Feb 19 20:55 SSE 11 16.09 Cloudy OVC070 22 16     72%   22 1024.1        
Feb 19 20:35 SSE 5 16.09 Mostly Cloudy BKN070 21 16     74%     1024.1        
Feb 19 20:15 Calm 16.09 Mostly Cloudy BKN070 21 16     73%     1023.7        
Feb 19 19:55 SSE 5 16.09 Mostly Cloudy BKN070 21 16     71%   21 1023.7        
Feb 19 19:35 SE 9 16.09 Cloudy OVC070 22 16     69%   22 1023.7        
Feb 19 19:15 SE 8 16.09 Cloudy OVC070 22 16     67%   22 1023.4        
Feb 19 18:55 SE 5 16.09 Cloudy OVC070 22 16     69%   22 1023.4        
Feb 19 18:35 Calm 16.09 Cloudy OVC070 22 15     65%   22 1023.4        
Feb 19 18:15 SE 5 16.09 Cloudy OVC070 22 15     65%   22 1023        
Feb 19 17:55 Calm 16.09 Cloudy OVC070 23 15     61%   23 1023        
Feb 19 17:35 SSE 5 16.09 Cloudy OVC070 24 15     58%   24 1023        
Feb 19 17:15 S 8 16.09 Cloudy OVC070 24 15     57%   24 1022.7        
Feb 19 16:55 S 8 16.09 Cloudy OVC070 25 15     56%   25 1022.7        
Feb 19 16:35 SSE 11 16.09 Cloudy SCT050 OVC070 25 15     55%   25 1022.7        
Feb 19 16:15 S 17 16.09 Cloudy SCT050 OVC070 25 15     54%   25 1022.7        
Feb 19 15:55 SSW 15 16.09 Cloudy SCT055 OVC070 26 15     52%   26 1022.7        
Feb 19 15:35 SSW 15 16.09 Mostly Cloudy BKN055 BKN070 25 15     53%   25 1022.7        
Feb 19 15:15 S 17 16.09 Cloudy SCT050 OVC070 26 15     52%   26 1022.7        
Feb 19 14:55 SSW 15 16.09 Cloudy SCT048 OVC070 26 16     53%   26 1022.7        
Feb 19 14:35 SSW 21 16.09 Mostly Cloudy BKN070 26 16     52%   27 1022.7        
Feb 19 14:15 SE 15 16.09 Partly Cloudy SCT070 26 16     54%   26 1022.7        
Feb 19 13:55 S 17 16.09 Clear CLR 26 16     54%   26 1022.7        
Feb 19 13:35 SSE 24 16.09 Clear CLR 26 16     54%   26 1023        
Feb 19 13:15 SSE 18 16.09 Clear CLR 25 16     59%   25 1023        
Feb 19 12:55 SSE 26 16.09 Partly Cloudy SCT032 24 16     60%   25 1023.7        
Feb 19 12:35 S 18 16.09 Partly Cloudy SCT032 25 17     64%   25 1024.1        
Feb 19 12:15 S 24 16.09 Mostly Cloudy BKN032 24 17     67%   24 1024.4        
Feb 19 11:55 S 18 16.09 Mostly Cloudy SCT025 BKN032 BKN039 24 18     72%   24 1024.7        
Feb 19 11:35 S 17 16.09 Cloudy SCT022 BKN029 OVC046 23 18     73%   23 1025.4        
Feb 19 11:15 S 17 16.09 Mostly Cloudy BKN018 BKN024 BKN040 23 19     77%   23 1025.7        
Feb 19 10:55 S 18 16.09 Mostly Cloudy BKN018 BKN025 BKN060 22 19     81%   22 1026.1        
Feb 19 10:35 S 18 16.09 Cloudy OVC014 22 20     90%   23 1026.1        
Feb 19 10:15 S 15 16.09 Cloudy OVC012 21 20     94%   22 1026.1        
Feb 19 09:55 S 11 16.09 Cloudy OVC010 21 20     98%     1026.1        
Feb 19 09:35 SSE 13 16.09 Cloudy OVC008 20 20     100%     1026.1        
Feb 19 09:15 SSE 9 16.09 Cloudy OVC006 20 20     100%     1026.1        
Feb 19 08:55 SSE 11 16.09 Cloudy OVC006 19 19     100%     1026.1        
Jun 12 04:15 Calm 16.09 Clear CLR 22 22     100%   23 1020.7        
Jun 12 03:55 Calm 16.09 Clear CLR 23 23     100%   24 1020.7        
Jun 11 21:55 Calm 16.09 Clear   26 22     79%   27 1021        
Jun 11 20:55 SSE 8 16.09 Clear   27 23     79%   29 1020        
Jun 11 17:15 S 9 16.09 Partly Cloudy SCT045 32 22     54%   37 1019        
Jun 11 15:15 SE 13 16.09 Partly Cloudy SCT045 32 22     56%   35 1020        
Jun 11 09:55 S 8 16.09 Mostly Cloudy BKN020 BKN085 28 23     74%   32 1021.7        
Jun 11 09:15 SE 11 16.09 Partly Cloudy SCT016 SCT110 27 23     77%   30 1021.7        
Notice The following observation data may not be complete
Jun 11 02:35   16.09 Clear CLR          %              
Jun 11 02:15 Calm 16.09 Clear   19 19     100%     1019        
Jun 11 00:15 Calm 16.09 Clear CLR 20 20     100%     1019.7        
Jun 10 18:35 SSE 5 16.09 Clear   28 18     54%   29 1017.6        
Jun 10 16:35 SE 8 16.09 Clear CLR 31 16     42%   31 1017.6        
Jun 10 13:35 SSE 13 16.09 Partly Cloudy SCT065 SCT075 31 18     47%   31 1019        
Jun 10 12:55 SSE 5 16.09 Mostly Cloudy SCT060 BKN075 31 17     44%   31 1019.3        
Jun 10 11:35 S 8 16.09 Partly Cloudy SCT065 30 16     42%   30 1019.7        
Jun 10 09:15 Calm 16.09 Partly Cloudy SCT080 SCT100 27 20     68%   28 1019.3        
Jun 10 05:15 Calm 16.09 Mostly Cloudy BKN080 BKN095 17 17     100%     1016.9        
Jun 10 03:15 Calm 16.09 Partly Cloudy SCT060 SCT070 18 18     100%     1016.3        
Jun 10 02:35 Calm 16.09 Partly Cloudy SCT060 18 18     100%     1016.3        
Jun 09 20:35 Calm 16.09 Clear CLR 22 20     86%   23 1014.6        
Jun 09 05:35 Calm 16.09 Partly Cloudy SCT060 16 16     100%     1014.2        
Jun 08 18:35 Calm 16.09 Partly Cloudy SCT110 26 17     56%   26 1011.2        
Jun 08 02:15 Calm 16.09 Clear CLR 16 16     100%     1011.5        
Jun 08 01:55 Calm 16.09 Clear CLR 16 16     97%     1011.5        
Jun 07 17:35 NNE 8 16.09 Clear CLR 28 16     49%   28 1009.8        
Jun 07 11:35 NE 13 16.09 Clear   26 20     69%   28 1009.8        
Jun 07 09:35 NE 11 16.09 Clear CLR 23 18     72%   24 1009.8        
Jun 06 10:55 Calm 16.09 Light Drizzle SCT005 BKN049 OVC055 22 22     100%   23 1009.8   0    
Notice The following observation data may not be complete
Jun 06 05:55   16.09 Cloudy OVC005          %              
Jun 06 04:55 Calm 16.09 Cloudy BKN005 BKN055 OVC070 22 22     100%   23 1009.2        
Jun 06 03:35 Calm 16.09 Light Rain SCT037 SCT048 SCT070 22 22     100%   23 1009.2        
Jun 06 01:55 Calm 16.09 Cloudy SCT035 BKN042 OVC065 22 22     100%   23 1009.5        
Jun 05 15:55 ENE 8 11.27 Rain SCT005 BKN048 OVC100 23 23     100%   25 1009.5   0 1